Time,TemperatureF,DewpointF,PressureIn,WindDirection,WindDirectionDegrees,WindSpeedMPH,WindSpeedGustMPH,Humidity,HourlyPrecipIn,Conditions,Clouds,dailyrainin,SoftwareType,DateUTC
2013-09-06 00:02:00,61.0,51.7,30.01,West,270,1.8,2.2,71,0.00,,,0.00,WUHU216HW,2013-09-06 07:02:00,
2013-09-06 00:07:00,61.0,51.7,29.99,West,270,2.0,2.5,71,0.00,,,0.00,WUHU216HW,2013-09-06 07:07:00,
2013-09-06 00:12:00,61.0,51.7,30.00,WSW,248,2.2,2.5,71,0.00,,,0.00,WUHU216HW,2013-09-06 07:12:00,
2013-09-06 00:17:00,61.0,51.7,30.00,WSW,248,2.0,2.2,71,0.00,,,0.00,WUHU216HW,2013-09-06 07:17:00,
2013-09-06 00:22:00,61.0,52.0,29.99,WSW,248,2.0,2.5,72,0.00,,,0.00,WUHU216HW,2013-09-06 07:22:00,
2013-09-06 00:27:00,60.8,51.8,29.99,WSW,248,2.9,2.9,72,0.00,,,0.00,WUHU216HW,2013-09-06 07:27:00,
2013-09-06 00:33:00,60.8,51.8,30.01,WSW,248,1.3,2.9,72,0.00,,,0.00,WUHU216HW,2013-09-06 07:33:00,
2013-09-06 00:38:00,60.8,51.8,30.00,WSW,248,1.8,2.5,72,0.00,,,0.00,WUHU216HW,2013-09-06 07:38:00,
2013-09-06 00:43:00,60.7,51.7,29.99,WSW,248,1.8,2.5,72,0.00,,,0.00,WUHU216HW,2013-09-06 07:43:00,
2013-09-06 00:48:00,60.7,51.7,29.99,West,270,2.0,2.9,72,0.00,,,0.00,WUHU216HW,2013-09-06 07:48:00,
2013-09-06 00:53:00,60.7,51.7,29.98,WSW,248,2.0,2.9,72,0.00,,,0.00,WUHU216HW,2013-09-06 07:53:00,
2013-09-06 00:58:00,60.7,51.7,29.99,WSW,248,1.8,2.7,72,0.00,,,0.00,WUHU216HW,2013-09-06 07:58:00,
2013-09-06 01:03:00,60.7,51.7,29.99,WSW,248,1.3,2.7,72,0.00,,,0.00,WUHU216HW,2013-09-06 08:03:00,
2013-09-06 01:08:00,60.7,51.3,29.99,WSW,248,2.0,2.5,71,0.00,,,0.00,WUHU216HW,2013-09-06 08:08:00,
2013-09-06 01:13:00,60.8,51.5,29.99,WSW,248,2.0,2.5,71,0.00,,,0.00,WUHU216HW,2013-09-06 08:13:00,
2013-09-06 01:18:00,60.8,51.5,29.99,WSW,248,2.0,2.7,71,0.00,,,0.00,WUHU216HW,2013-09-06 08:18:00,
2013-09-06 01:23:00,60.8,51.5,29.99,WSW,248,2.2,2.7,71,0.00,,,0.00,WUHU216HW,2013-09-06 08:23:00,
2013-09-06 01:28:00,60.8,51.5,29.99,WSW,248,2.0,2.5,71,0.00,,,0.00,WUHU216HW,2013-09-06 08:28:00,
2013-09-06 01:34:00,60.8,51.5,29.99,WSW,248,2.5,2.9,71,0.00,,,0.00,WUHU216HW,2013-09-06 08:34:00,
2013-09-06 01:39:00,60.7,51.3,29.98,SW,225,1.8,2.9,71,0.00,,,0.00,WUHU216HW,2013-09-06 08:39:00,
2013-09-06 01:44:00,60.7,51.3,29.98,WSW,248,2.0,2.5,71,0.00,,,0.00,WUHU216HW,2013-09-06 08:44:00,
2013-09-06 01:49:00,60.7,51.3,29.99,WSW,248,2.5,2.5,71,0.00,,,0.00,WUHU216HW,2013-09-06 08:49:00,
2013-09-06 01:54:00,60.8,51.5,29.98,WSW,248,2.0,2.7,71,0.00,,,0.00,WUHU216HW,2013-09-06 08:54:00,
2013-09-06 01:59:00,60.8,51.5,29.97,SW,225,1.8,2.7,71,0.00,,,0.00,WUHU216HW,2013-09-06 08:59:00,
2013-09-06 02:04:00,60.7,51.3,30.00,WSW,248,1.6,2.5,71,0.00,,,0.00,WUHU216HW,2013-09-06 09:04:00,
2013-09-06 02:09:00,60.8,51.1,29.97,WSW,248,1.6,2.2,70,0.00,,,0.00,WUHU216HW,2013-09-06 09:09:00,
2013-09-06 02:14:00,60.8,51.1,29.98,WSW,248,1.8,2.2,70,0.00,,,0.00,WUHU216HW,2013-09-06 09:14:00,
2013-09-06 02:19:00,60.8,51.1,29.96,WSW,248,2.2,2.7,70,0.00,,,0.00,WUHU216HW,2013-09-06 09:19:00,
2013-09-06 02:24:00,61.0,51.3,29.97,WSW,248,1.8,2.7,70,0.00,,,0.00,WUHU216HW,2013-09-06 09:24:00,
2013-09-06 02:30:00,61.0,51.3,29.96,WSW,248,1.3,1.8,70,0.00,,,0.00,WUHU216HW,2013-09-06 09:30:00,
2013-09-06 02:35:00,61.0,50.9,29.96,WSW,248,1.8,1.8,69,0.00,,,0.00,WUHU216HW,2013-09-06 09:35:00,
2013-09-06 02:40:00,60.8,50.7,29.96,WSW,248,1.6,2.0,69,0.00,,,0.00,WUHU216HW,2013-09-06 09:40:00,
2013-09-06 02:45:00,60.8,51.1,29.98,WSW,248,1.3,2.0,70,0.00,,,0.00,WUHU216HW,2013-09-06 09:45:00,
2013-09-06 02:50:00,60.7,51.3,29.96,WSW,248,1.1,1.6,71,0.00,,,0.00,WUHU216HW,2013-09-06 09:50:00,
2013-09-06 02:55:00,60.5,51.5,29.96,WSW,248,1.1,1.8,72,0.00,,,0.00,WUHU216HW,2013-09-06 09:55:00,
2013-09-06 03:00:00,60.5,51.5,29.96,WSW,248,0.7,1.8,72,0.00,,,0.00,WUHU216HW,2013-09-06 10:00:00,
2013-09-06 03:05:00,60.7,51.7,29.95,WSW,248,0.9,1.3,72,0.00,,,0.00,WUHU216HW,2013-09-06 10:05:00,
2013-09-06 03:10:00,60.7,51.7,29.94,WSW,248,0.7,1.1,72,0.00,,,0.00,WUHU216HW,2013-09-06 10:10:00,
2013-09-06 03:15:00,60.7,51.7,29.95,WSW,248,0.7,1.1,72,0.00,,,0.00,WUHU216HW,2013-09-06 10:15:00,
2013-09-06 03:20:00,60.8,51.8,29.95,WSW,248,0.9,1.1,72,0.00,,,0.00,WUHU216HW,2013-09-06 10:20:00,
2013-09-06 03:25:00,60.7,51.7,29.95,WSW,248,0.9,1.1,72,0.00,,,0.00,WUHU216HW,2013-09-06 10:25:00,
2013-09-06 03:31:00,60.5,51.5,29.96,WSW,248,1.1,1.1,72,0.00,,,0.00,WUHU216HW,2013-09-06 10:31:00,
2013-09-06 03:36:00,60.7,52.0,29.96,WSW,248,0.7,1.1,73,0.00,,,0.00,WUHU216HW,2013-09-06 10:36:00,
2013-09-06 03:41:00,60.8,52.2,29.96,WSW,248,0.7,0.9,73,0.00,,,0.00,WUHU216HW,2013-09-06 10:41:00,
2013-09-06 03:46:00,61.0,52.0,29.95,WSW,248,0.4,0.9,72,0.00,,,0.00,WUHU216HW,2013-09-06 10:46:00,
2013-09-06 03:51:00,61.0,52.0,29.95,WSW,248,0.7,0.9,72,0.00,,,0.00,WUHU216HW,2013-09-06 10:51:00,
2013-09-06 03:56:00,60.8,51.8,29.95,WSW,248,0.7,0.9,72,0.00,,,0.00,WUHU216HW,2013-09-06 10:56:00,
2013-09-06 04:01:00,60.8,51.8,29.95,NNE,23,0.0,0.9,72,0.00,,,0.00,WUHU216HW,2013-09-06 11:01:00,
2013-09-06 04:06:00,60.8,51.8,29.94,NNE,23,0.0,0.4,72,0.00,,,0.00,WUHU216HW,2013-09-06 11:06:00,
2013-09-06 04:11:00,60.8,51.5,29.94,West,270,1.1,1.1,71,0.00,,,0.00,WUHU216HW,2013-09-06 11:11:00,
2013-09-06 04:16:00,60.5,51.5,29.95,WSW,248,1.1,1.1,72,0.00,,,0.00,WUHU216HW,2013-09-06 11:16:00,
2013-09-06 04:21:00,60.1,51.1,29.95,WSW,248,0.9,1.3,72,0.00,,,0.00,WUHU216HW,2013-09-06 11:21:00,
2013-09-06 04:26:00,59.8,51.1,29.94,WSW,248,0.7,1.3,73,0.00,,,0.00,WUHU216HW,2013-09-06 11:26:00,
2013-09-06 04:32:00,59.6,50.9,29.94,WSW,248,0.7,1.1,73,0.00,,,0.00,WUHU216HW,2013-09-06 11:32:00,
2013-09-06 04:37:00,59.6,50.9,29.94,WSW,248,0.4,0.9,73,0.00,,,0.00,WUHU216HW,2013-09-06 11:37:00,
2013-09-06 04:42:00,59.8,51.1,29.94,WSW,248,0.4,0.4,73,0.00,,,0.00,WUHU216HW,2013-09-06 11:42:00,
2013-09-06 04:47:00,59.4,50.8,29.93,WSW,248,0.9,1.1,73,0.00,,,0.00,WUHU216HW,2013-09-06 11:47:00,
2013-09-06 04:52:00,59.4,50.8,29.94,SW,225,1.1,1.1,73,0.00,,,0.00,WUHU216HW,2013-09-06 11:52:00,
2013-09-06 04:57:00,59.4,51.1,29.94,SW,225,1.1,1.1,74,0.00,,,0.00,WUHU216HW,2013-09-06 11:57:00,
2013-09-06 05:02:00,59.6,51.3,29.93,SW,225,0.7,1.1,74,0.00,,,0.00,WUHU216HW,2013-09-06 12:02:00,
2013-09-06 05:07:00,59.4,51.1,29.94,SW,225,1.1,1.1,74,0.00,,,0.00,WUHU216HW,2013-09-06 12:07:00,
2013-09-06 05:12:00,59.4,51.1,29.94,WSW,248,1.1,1.3,74,0.00,,,0.00,WUHU216HW,2013-09-06 12:12:00,
2013-09-06 05:17:00,59.2,51.3,29.94,SW,225,1.1,1.3,75,0.00,,,0.00,WUHU216HW,2013-09-06 12:17:00,
2013-09-06 05:22:00,59.0,51.1,29.94,WSW,248,0.9,1.1,75,0.00,,,0.00,WUHU216HW,2013-09-06 12:22:00,
2013-09-06 05:28:00,59.0,51.1,29.95,WSW,248,0.4,1.3,75,0.00,,,0.00,WUHU216HW,2013-09-06 12:28:00,
2013-09-06 05:33:00,59.0,51.5,29.94,WSW,248,0.4,1.1,76,0.00,,,0.00,WUHU216HW,2013-09-06 12:33:00,
2013-09-06 05:38:00,59.0,51.5,29.93,WSW,248,0.9,0.9,76,0.00,,,0.00,WUHU216HW,2013-09-06 12:38:00,
2013-09-06 05:43:00,58.9,51.3,29.94,WSW,248,0.9,0.9,76,0.00,,,0.00,WUHU216HW,2013-09-06 12:43:00,
2013-09-06 05:48:00,58.9,51.7,29.94,WSW,248,1.3,1.3,77,0.00,,,0.00,WUHU216HW,2013-09-06 12:48:00,
2013-09-06 05:53:00,59.0,51.8,29.94,WSW,248,1.1,1.3,77,0.00,,,0.00,WUHU216HW,2013-09-06 12:53:00,
2013-09-06 05:58:00,58.9,51.7,29.94,WSW,248,0.9,1.1,77,0.00,,,0.00,WUHU216HW,2013-09-06 12:58:00,
2013-09-06 06:03:00,58.9,51.3,29.94,WSW,248,1.1,1.1,76,0.00,,,0.00,WUHU216HW,2013-09-06 13:03:00,
2013-09-06 06:08:00,59.0,51.5,29.94,WSW,248,1.8,1.8,76,0.00,,,0.00,WUHU216HW,2013-09-06 13:08:00,
2013-09-06 06:13:00,59.0,51.5,29.94,WSW,248,1.3,1.8,76,0.00,,,0.00,WUHU216HW,2013-09-06 13:13:00,
2013-09-06 06:18:00,59.0,51.5,29.94,WSW,248,0.9,1.8,76,0.00,,,0.00,WUHU216HW,2013-09-06 13:18:00,
2013-09-06 06:23:00,58.9,51.3,29.94,SW,225,1.1,1.1,76,0.00,,,0.00,WUHU216HW,2013-09-06 13:23:00,
2013-09-06 06:29:00,58.9,51.3,29.94,WSW,248,0.7,1.3,76,0.00,,,0.00,WUHU216HW,2013-09-06 13:29:00,
2013-09-06 06:34:00,58.7,51.5,29.94,WSW,248,0.9,1.3,77,0.00,,,0.00,WUHU216HW,2013-09-06 13:34:00,
2013-09-06 06:39:00,58.7,51.5,29.94,WSW,248,0.7,1.1,77,0.00,,,0.00,WUHU216HW,2013-09-06 13:39:00,
2013-09-06 06:44:00,58.7,51.5,29.94,WSW,248,0.0,1.1,77,0.00,,,0.00,WUHU216HW,2013-09-06 13:44:00,
2013-09-06 06:49:00,58.7,51.5,29.94,WSW,248,0.4,0.4,77,0.00,,,0.00,WUHU216HW,2013-09-06 13:49:00,
2013-09-06 06:54:00,58.7,51.5,29.93,WSW,248,0.4,1.1,77,0.00,,,0.00,WUHU216HW,2013-09-06 13:54:00,
2013-09-06 06:59:00,58.7,51.5,29.94,WSW,248,0.9,1.1,77,0.00,,,0.00,WUHU216HW,2013-09-06 13:59:00,
2013-09-06 07:04:00,58.7,51.5,29.94,WSW,248,0.0,1.1,77,0.00,,,0.00,WUHU216HW,2013-09-06 14:04:00,
2013-09-06 07:09:00,58.7,51.5,29.94,WSW,248,0.0,1.1,77,0.00,,,0.00,WUHU216HW,2013-09-06 14:09:00,
2013-09-06 07:14:00,58.9,51.7,29.94,SW,225,0.0,0.7,77,0.00,,,0.00,WUHU216HW,2013-09-06 14:14:00,
2013-09-06 07:20:00,59.2,52.0,29.94,SW,225,0.7,0.7,77,0.00,,,0.00,WUHU216HW,2013-09-06 14:20:00,
2013-09-06 07:25:00,59.4,51.8,29.94,SW,225,0.4,0.9,76,0.00,,,0.00,WUHU216HW,2013-09-06 14:25:00,
2013-09-06 07:30:00,59.8,52.2,29.94,SW,225,0.0,0.9,76,0.00,,,0.00,WUHU216HW,2013-09-06 14:30:00,
2013-09-06 07:35:00,60.1,52.6,29.94,SW,225,0.0,0.0,76,0.00,,,0.00,WUHU216HW,2013-09-06 14:35:00,
2013-09-06 07:40:00,60.5,52.6,29.95,West,270,0.4,0.4,75,0.00,,,0.00,WUHU216HW,2013-09-06 14:40:00,
2013-09-06 07:45:00,61.0,52.8,29.94,NE,45,0.4,0.4,74,0.00,,,0.00,WUHU216HW,2013-09-06 14:45:00,
2013-09-06 07:50:00,61.6,52.8,29.95,NE,45,0.7,1.1,73,0.00,,,0.00,WUHU216HW,2013-09-06 14:50:00,
2013-09-06 07:55:00,62.1,53.0,29.95,NNE,23,0.9,1.1,72,0.00,,,0.00,WUHU216HW,2013-09-06 14:55:00,
2013-09-06 08:00:00,62.6,53.1,29.95,NE,45,0.0,1.1,71,0.00,,,0.00,WUHU216HW,2013-09-06 15:00:00,
2013-09-06 08:05:00,63.0,53.1,29.94,NNE,23,0.0,0.7,70,0.00,,,0.00,WUHU216HW,2013-09-06 15:05:00,
2013-09-06 08:10:00,63.5,53.2,29.94,ENE,68,0.9,1.6,69,0.00,,,0.00,WUHU216HW,2013-09-06 15:10:00,
2013-09-06 08:16:00,63.9,53.2,29.94,ENE,68,0.2,1.1,68,0.00,,,0.00,WUHU216HW,2013-09-06 15:16:00,
2013-09-06 08:21:00,64.4,53.3,29.95,ENE,68,0.4,1.1,67,0.00,,,0.00,WUHU216HW,2013-09-06 15:21:00,
2013-09-06 08:26:00,64.8,53.6,29.94,East,90,0.7,1.1,67,0.00,,,0.00,WUHU216HW,2013-09-06 15:26:00,
2013-09-06 08:31:00,65.0,53.7,29.94,ENE,68,0.4,1.1,67,0.00,,,0.00,WUHU216HW,2013-09-06 15:31:00,
2013-09-06 08:36:00,65.5,53.8,29.94,ENE,68,0.4,1.1,66,0.00,,,0.00,WUHU216HW,2013-09-06 15:36:00,
2013-09-06 08:41:00,65.9,53.7,29.94,NNE,23,0.0,2.0,65,0.00,,,0.00,WUHU216HW,2013-09-06 15:41:00,
2013-09-06 08:46:00,66.4,53.5,29.95,East,90,0.7,2.0,63,0.00,,,0.00,WUHU216HW,2013-09-06 15:46:00,
2013-09-06 08:51:00,67.0,53.6,29.95,ESE,113,0.0,2.0,62,0.00,,,0.00,WUHU216HW,2013-09-06 15:51:00,
2013-09-06 08:56:00,67.5,53.2,29.95,NNE,23,0.9,1.8,60,0.00,,,0.00,WUHU216HW,2013-09-06 15:56:00,
2013-09-06 09:01:00,68.0,53.6,29.95,NNE,23,0.9,1.8,60,0.00,,,0.00,WUHU216HW,2013-09-06 16:01:00,
2013-09-06 09:06:00,68.4,53.6,29.95,East,90,0.7,2.5,59,0.00,,,0.00,WUHU216HW,2013-09-06 16:06:00,
2013-09-06 09:11:00,68.8,53.4,29.96,ENE,68,1.1,2.5,58,0.00,,,0.00,WUHU216HW,2013-09-06 16:11:00,
2013-09-06 09:17:00,68.9,52.6,29.95,ENE,68,2.2,4.0,56,0.00,,,0.00,WUHU216HW,2013-09-06 16:17:00,
2013-09-06 09:22:00,69.3,53.4,29.94,ENE,68,0.9,4.0,57,0.00,,,0.00,WUHU216HW,2013-09-06 16:22:00,
2013-09-06 09:27:00,69.7,53.7,29.95,NNE,23,2.0,2.0,57,0.00,,,0.00,WUHU216HW,2013-09-06 16:27:00,
2013-09-06 09:32:00,70.0,53.6,29.94,East,90,0.4,2.0,56,0.00,,,0.00,WUHU216HW,2013-09-06 16:32:00,
2013-09-06 09:37:00,70.6,53.6,29.95,NNW,338,2.2,2.2,55,0.00,,,0.00,WUHU216HW,2013-09-06 16:37:00,
2013-09-06 09:42:00,70.7,53.2,29.96,NNE,23,0.4,2.5,54,0.00,,,0.00,WUHU216HW,2013-09-06 16:42:00,
2013-09-06 09:47:00,71.1,53.6,29.95,East,90,1.6,2.5,54,0.00,,,0.00,WUHU216HW,2013-09-06 16:47:00,
2013-09-06 09:52:00,71.5,53.4,29.96,NNW,338,0.7,3.1,53,0.00,,,0.00,WUHU216HW,2013-09-06 16:52:00,
2013-09-06 09:57:00,71.8,53.2,29.94,NE,45,0.7,3.1,52,0.00,,,0.00,WUHU216HW,2013-09-06 16:57:00,
2013-09-06 10:02:00,72.4,53.6,29.95,NNE,23,1.8,2.0,52,0.00,,,0.00,WUHU216HW,2013-09-06 17:02:00,
2013-09-06 10:07:00,72.9,53.6,29.93,ENE,68,2.2,2.2,51,0.00,,,0.00,WUHU216HW,2013-09-06 17:07:00,
2013-09-06 10:13:00,73.1,53.8,29.94,North,0,2.2,2.5,51,0.00,,,0.00,WUHU216HW,2013-09-06 17:13:00,
2013-09-06 10:18:00,73.6,53.8,29.94,North,0,3.8,3.8,50,0.00,,,0.00,WUHU216HW,2013-09-06 17:18:00,
2013-09-06 10:23:00,73.8,53.4,29.93,East,90,1.1,3.8,49,0.00,,,0.00,WUHU216HW,2013-09-06 17:23:00,
2013-09-06 10:28:00,74.2,53.7,29.95,ENE,68,1.1,2.5,49,0.00,,,0.00,WUHU216HW,2013-09-06 17:28:00,
2013-09-06 10:33:00,74.5,55.3,29.93,ENE,68,0.4,2.5,51,0.00,,,0.00,WUHU216HW,2013-09-06 17:33:00,
2013-09-06 10:38:00,74.9,54.5,29.94,North,0,2.9,3.8,49,0.00,,,0.00,WUHU216HW,2013-09-06 17:38:00,
2013-09-06 10:43:00,75.4,55.6,29.94,North,0,2.5,3.8,50,0.00,,,0.00,WUHU216HW,2013-09-06 17:43:00,
2013-09-06 10:48:00,75.6,55.8,29.93,North,0,1.1,2.5,50,0.00,,,0.00,WUHU216HW,2013-09-06 17:48:00,
2013-09-06 10:53:00,76.0,56.1,29.94,ENE,68,2.2,2.5,50,0.00,,,0.00,WUHU216HW,2013-09-06 17:53:00,
2013-09-06 10:58:00,76.3,55.8,29.94,North,0,1.6,2.5,49,0.00,,,0.00,WUHU216HW,2013-09-06 17:58:00,
2013-09-06 11:03:00,76.7,56.2,29.94,ENE,68,3.4,3.4,49,0.00,,,0.00,WUHU216HW,2013-09-06 18:03:00,
2013-09-06 11:08:00,77.0,55.8,29.94,NNW,338,4.7,4.7,48,0.00,,,0.00,WUHU216HW,2013-09-06 18:08:00,
2013-09-06 11:14:00,77.2,56.0,29.93,NNE,23,1.1,4.7,48,0.00,,,0.00,WUHU216HW,2013-09-06 18:14:00,
2013-09-06 11:19:00,77.4,54.9,29.93,NNE,23,1.1,4.5,46,0.00,,,0.00,WUHU216HW,2013-09-06 18:19:00,
2013-09-06 11:24:00,77.8,54.6,29.92,NNE,23,0.9,3.1,45,0.00,,,0.00,WUHU216HW,2013-09-06 18:24:00,
2013-09-06 11:29:00,78.1,55.0,29.93,ENE,68,0.2,3.1,45,0.00,,,0.00,WUHU216HW,2013-09-06 18:29:00,
2013-09-06 11:34:00,78.7,54.3,29.93,North,0,1.8,3.1,43,0.00,,,0.00,WUHU216HW,2013-09-06 18:34:00,
2013-09-06 11:39:00,78.8,54.4,29.93,North,0,1.1,2.9,43,0.00,,,0.00,WUHU216HW,2013-09-06 18:39:00,
2013-09-06 11:44:00,78.8,54.4,29.93,NE,45,1.1,2.2,43,0.00,,,0.00,WUHU216HW,2013-09-06 18:44:00,
2013-09-06 11:49:00,79.2,54.1,29.94,NE,45,1.1,3.4,42,0.00,,,0.00,WUHU216HW,2013-09-06 18:49:00,
2013-09-06 11:54:00,79.6,54.5,29.92,WNW,293,1.3,3.4,42,0.00,,,0.00,WUHU216HW,2013-09-06 18:54:00,
2013-09-06 11:59:00,80.1,55.5,29.92,East,90,0.9,2.9,43,0.00,,,0.00,WUHU216HW,2013-09-06 18:59:00,
2013-09-06 12:04:00,80.6,54.8,29.93,North,0,4.0,4.0,41,0.00,,,0.00,WUHU216HW,2013-09-06 19:04:00,
2013-09-06 12:10:00,81.0,54.6,29.93,NE,45,2.7,4.0,40,0.00,,,0.00,WUHU216HW,2013-09-06 19:10:00,
2013-09-06 12:15:00,81.4,54.8,29.91,NNW,338,3.8,4.0,40,0.00,,,0.00,WUHU216HW,2013-09-06 19:15:00,
2013-09-06 12:20:00,81.7,55.2,29.92,ENE,68,2.0,3.8,40,0.00,,,0.00,WUHU216HW,2013-09-06 19:20:00,
2013-09-06 12:25:00,82.3,55.6,29.92,NE,45,1.1,3.4,40,0.00,,,0.00,WUHU216HW,2013-09-06 19:25:00,
2013-09-06 12:30:00,82.8,54.5,29.91,East,90,2.0,2.0,38,0.00,,,0.00,WUHU216HW,2013-09-06 19:30:00,
2013-09-06 12:35:00,83.2,54.1,29.91,East,90,1.8,3.1,37,0.00,,,0.00,WUHU216HW,2013-09-06 19:35:00,
2013-09-06 12:40:00,83.7,54.5,29.91,NNE,23,4.0,4.0,37,0.00,,,0.00,WUHU216HW,2013-09-06 19:40:00,
2013-09-06 12:45:00,83.9,52.4,29.91,NNW,338,2.0,4.0,34,0.00,,,0.00,WUHU216HW,2013-09-06 19:45:00,
2013-09-06 12:50:00,84.1,54.9,29.91,NNE,23,1.8,6.5,37,0.00,,,0.00,WUHU216HW,2013-09-06 19:50:00,
2013-09-06 12:55:00,84.1,52.5,29.91,North,0,4.7,6.5,34,0.00,,,0.00,WUHU216HW,2013-09-06 19:55:00,
2013-09-06 13:00:00,84.2,53.5,29.91,North,0,2.2,4.7,35,0.00,,,0.00,WUHU216HW,2013-09-06 20:00:00,
2013-09-06 13:05:00,84.6,53.8,29.91,NNE,23,2.9,3.1,35,0.00,,,0.00,WUHU216HW,2013-09-06 20:05:00,
2013-09-06 13:10:00,84.8,53.9,29.91,NNE,23,2.5,3.1,35,0.00,,,0.00,WUHU216HW,2013-09-06 20:10:00,
2013-09-06 13:16:00,85.0,54.9,29.90,North,0,2.2,4.3,36,0.00,,,0.00,WUHU216HW,2013-09-06 20:16:00,
2013-09-06 13:21:00,85.3,55.3,29.90,NE,45,1.3,4.3,36,0.00,,,0.00,WUHU216HW,2013-09-06 20:21:00,
2013-09-06 13:26:00,85.7,54.7,29.90,ESE,113,1.8,3.1,35,0.00,,,0.00,WUHU216HW,2013-09-06 20:26:00,
2013-09-06 13:31:00,86.0,55.9,29.91,NE,45,2.2,3.4,36,0.00,,,0.00,WUHU216HW,2013-09-06 20:31:00,
2013-09-06 13:36:00,85.9,56.5,29.91,NE,45,3.6,4.3,37,0.00,,,0.00,WUHU216HW,2013-09-06 20:36:00,
2013-09-06 13:41:00,85.7,56.3,29.91,North,0,2.2,4.3,37,0.00,,,0.00,WUHU216HW,2013-09-06 20:41:00,
2013-09-06 13:46:00,85.9,57.3,29.90,NNW,338,1.6,4.0,38,0.00,,,0.00,WUHU216HW,2013-09-06 20:46:00,
2013-09-06 13:51:00,85.9,56.5,29.91,NNE,23,3.4,4.0,37,0.00,,,0.00,WUHU216HW,2013-09-06 20:51:00,
2013-09-06 13:56:00,85.7,57.2,29.91,NNE,23,3.4,5.4,38,0.00,,,0.00,WUHU216HW,2013-09-06 20:56:00,
2013-09-06 14:01:00,85.5,57.0,29.90,North,0,1.1,5.4,38,0.00,,,0.00,WUHU216HW,2013-09-06 21:01:00,
2013-09-06 14:06:00,85.7,57.2,29.90,North,0,1.1,5.4,38,0.00,,,0.00,WUHU216HW,2013-09-06 21:06:00,
2013-09-06 14:11:00,85.7,57.2,29.90,NW,315,1.1,4.0,38,0.00,,,0.00,WUHU216HW,2013-09-06 21:11:00,
2013-09-06 14:17:00,85.5,56.2,29.89,NW,315,1.3,4.7,37,0.00,,,0.00,WUHU216HW,2013-09-06 21:17:00,
2013-09-06 14:22:00,85.5,56.2,29.90,North,0,1.6,4.7,37,0.00,,,0.00,WUHU216HW,2013-09-06 21:22:00,
2013-09-06 14:27:00,85.1,54.3,29.90,NNE,23,4.0,5.4,35,0.00,,,0.00,WUHU216HW,2013-09-06 21:27:00,
2013-09-06 14:32:00,84.4,54.5,29.89,North,0,4.3,5.4,36,0.00,,,0.00,WUHU216HW,2013-09-06 21:32:00,
2013-09-06 14:37:00,84.4,55.2,29.89,North,0,4.3,4.3,37,0.00,,,0.00,WUHU216HW,2013-09-06 21:37:00,
2013-09-06 14:42:00,84.4,54.5,29.90,ENE,68,1.1,4.7,36,0.00,,,0.00,WUHU216HW,2013-09-06 21:42:00,
2013-09-06 14:47:00,84.8,53.9,29.89,North,0,1.8,4.7,35,0.00,,,0.00,WUHU216HW,2013-09-06 21:47:00,
2013-09-06 14:52:00,85.3,53.6,29.88,North,0,2.5,3.1,34,0.00,,,0.00,WUHU216HW,2013-09-06 21:52:00,
2013-09-06 14:57:00,85.5,53.8,29.89,NNW,338,1.1,4.0,34,0.00,,,0.00,WUHU216HW,2013-09-06 21:57:00,
2013-09-06 15:02:00,85.5,53.8,29.88,NE,45,4.5,4.5,34,0.00,,,0.00,WUHU216HW,2013-09-06 22:02:00,
2013-09-06 15:07:00,85.9,53.4,29.88,NE,45,5.4,5.4,33,0.00,,,0.00,WUHU216HW,2013-09-06 22:07:00,
2013-09-06 15:13:00,86.0,54.3,29.87,NNE,23,2.0,5.4,34,0.00,,,0.00,WUHU216HW,2013-09-06 22:13:00,
2013-09-06 15:18:00,86.2,55.3,29.87,NNE,23,3.1,4.7,35,0.00,,,0.00,WUHU216HW,2013-09-06 22:18:00,
2013-09-06 15:23:00,86.0,55.9,29.88,NNW,338,0.4,4.7,36,0.00,,,0.00,WUHU216HW,2013-09-06 22:23:00,
2013-09-06 15:28:00,86.0,55.1,29.88,North,0,2.0,3.4,35,0.00,,,0.00,WUHU216HW,2013-09-06 22:28:00,
2013-09-06 15:33:00,86.0,55.9,29.88,NNE,23,3.4,4.7,36,0.00,,,0.00,WUHU216HW,2013-09-06 22:33:00,
2013-09-06 15:38:00,86.0,55.9,29.88,North,0,0.4,4.7,36,0.00,,,0.00,WUHU216HW,2013-09-06 22:38:00,
2013-09-06 15:43:00,86.2,55.3,29.88,NNE,23,3.4,3.6,35,0.00,,,0.00,WUHU216HW,2013-09-06 22:43:00,
2013-09-06 15:48:00,86.0,55.1,29.88,NNE,23,1.1,3.8,35,0.00,,,0.00,WUHU216HW,2013-09-06 22:48:00,
2013-09-06 15:53:00,86.2,55.3,29.88,NNW,338,2.9,3.8,35,0.00,,,0.00,WUHU216HW,2013-09-06 22:53:00,
2013-09-06 15:58:00,86.0,56.7,29.88,NNE,23,0.4,4.7,37,0.00,,,0.00,WUHU216HW,2013-09-06 22:58:00,
2013-09-06 16:03:00,86.2,56.8,29.88,North,0,0.7,4.7,37,0.00,,,0.00,WUHU216HW,2013-09-06 23:03:00,
2013-09-06 16:09:00,86.2,56.8,29.86,NNE,23,1.1,1.8,37,0.00,,,0.00,WUHU216HW,2013-09-06 23:09:00,
2013-09-06 16:14:00,86.2,56.8,29.87,North,0,1.3,1.8,37,0.00,,,0.00,WUHU216HW,2013-09-06 23:14:00,
2013-09-06 16:19:00,86.0,57.4,29.89,North,0,0.4,3.4,38,0.00,,,0.00,WUHU216HW,2013-09-06 23:19:00,
2013-09-06 16:24:00,86.0,56.7,29.87,NNE,23,1.1,3.4,37,0.00,,,0.00,WUHU216HW,2013-09-06 23:24:00,
2013-09-06 16:29:00,85.9,57.3,29.88,North,0,1.8,2.0,38,0.00,,,0.00,WUHU216HW,2013-09-06 23:29:00,
2013-09-06 16:34:00,85.5,57.0,29.86,NE,45,1.1,2.5,38,0.00,,,0.00,WUHU216HW,2013-09-06 23:34:00,
2013-09-06 16:39:00,85.1,56.6,29.88,NNE,23,3.1,3.1,38,0.00,,,0.00,WUHU216HW,2013-09-06 23:39:00,
2013-09-06 16:44:00,84.4,56.8,29.87,NNE,23,0.9,3.1,39,0.00,,,0.00,WUHU216HW,2013-09-06 23:44:00,
2013-09-06 16:49:00,84.1,56.4,29.87,West,270,2.0,2.2,39,0.00,,,0.00,WUHU216HW,2013-09-06 23:49:00,
2013-09-06 16:54:00,84.1,56.4,29.87,North,0,1.1,2.0,39,0.00,,,0.00,WUHU216HW,2013-09-06 23:54:00,
2013-09-06 16:59:00,83.9,56.4,29.87,North,0,1.6,2.0,39,0.00,,,0.00,WUHU216HW,2013-09-06 23:59:00,
2013-09-06 17:05:00,83.7,56.2,29.87,North,0,0.4,2.0,39,0.00,,,0.00,WUHU216HW,2013-09-07 00:05:00,
2013-09-06 17:10:00,83.5,56.0,29.86,West,270,2.0,2.0,39,0.00,,,0.00,WUHU216HW,2013-09-07 00:10:00,
2013-09-06 17:15:00,83.5,56.0,29.87,West,270,2.9,2.9,39,0.00,,,0.00,WUHU216HW,2013-09-07 00:15:00,
2013-09-06 17:20:00,83.5,56.0,29.87,West,270,0.9,2.9,39,0.00,,,0.00,WUHU216HW,2013-09-07 00:20:00,
2013-09-06 17:25:00,83.5,56.0,29.87,NNE,23,3.4,3.4,39,0.00,,,0.00,WUHU216HW,2013-09-07 00:25:00,
2013-09-06 17:30:00,83.2,55.6,29.87,NW,315,1.1,3.4,39,0.00,,,0.00,WUHU216HW,2013-09-07 00:30:00,
2013-09-06 17:35:00,83.0,55.5,29.86,WNW,293,1.8,2.5,39,0.00,,,0.00,WUHU216HW,2013-09-07 00:35:00,
2013-09-06 17:40:00,82.6,55.2,29.87,West,270,1.1,2.5,39,0.00,,,0.00,WUHU216HW,2013-09-07 00:40:00,
2013-09-06 17:45:00,82.4,55.0,29.87,North,0,0.7,1.1,39,0.00,,,0.00,WUHU216HW,2013-09-07 00:45:00,
2013-09-06 17:51:00,81.9,54.6,29.86,NE,45,0.7,1.1,39,0.00,,,0.00,WUHU216HW,2013-09-07 00:51:00,
2013-09-06 17:56:00,81.5,55.0,29.87,ENE,68,0.4,1.1,40,0.00,,,0.00,WUHU216HW,2013-09-07 00:56:00,
2013-09-06 18:01:00,81.4,54.8,29.87,NE,45,0.0,0.9,40,0.00,,,0.00,WUHU216HW,2013-09-07 01:01:00,
2013-09-06 18:06:00,81.0,54.6,29.87,ENE,68,0.2,0.9,40,0.00,,,0.00,WUHU216HW,2013-09-07 01:06:00,
2013-09-06 18:11:00,80.8,54.4,29.87,NNE,23,1.8,1.8,40,0.00,,,0.00,WUHU216HW,2013-09-07 01:11:00,
2013-09-06 18:16:00,80.3,53.8,29.87,WSW,248,0.7,1.8,40,0.00,,,0.00,WUHU216HW,2013-09-07 01:16:00,
2013-09-06 18:21:00,79.7,53.4,29.87,NNE,23,0.0,2.0,40,0.00,,,0.00,WUHU216HW,2013-09-07 01:21:00,
2013-09-06 18:26:00,79.4,53.6,29.88,NNE,23,0.4,2.0,41,0.00,,,0.00,WUHU216HW,2013-09-07 01:26:00,
2013-09-06 18:31:00,79.0,53.4,29.88,NNE,23,0.0,1.1,41,0.00,,,0.00,WUHU216HW,2013-09-07 01:31:00,
2013-09-06 18:36:00,78.8,53.2,29.88,North,0,0.0,0.7,41,0.00,,,0.00,WUHU216HW,2013-09-07 01:36:00,
2013-09-06 18:42:00,78.5,53.5,29.87,North,0,0.0,0.7,42,0.00,,,0.00,WUHU216HW,2013-09-07 01:42:00,
2013-09-06 18:47:00,78.5,53.5,29.87,North,0,0.0,0.0,42,0.00,,,0.00,WUHU216HW,2013-09-07 01:47:00,
2013-09-06 18:52:00,78.3,53.3,29.87,North,0,0.0,0.0,42,0.00,,,0.00,WUHU216HW,2013-09-07 01:52:00,
2013-09-06 18:57:00,78.1,53.1,29.87,NW,315,0.2,0.2,42,0.00,,,0.00,WUHU216HW,2013-09-07 01:57:00,
2013-09-06 19:02:00,77.9,53.0,29.85,NW,315,0.4,0.7,42,0.00,,,0.00,WUHU216HW,2013-09-07 02:02:00,
2013-09-06 19:07:00,77.6,52.7,29.87,NW,315,0.0,0.4,42,0.00,,,0.00,WUHU216HW,2013-09-07 02:07:00,
2013-09-06 19:12:00,77.2,52.9,29.87,WNW,293,0.0,0.7,43,0.00,,,0.00,WUHU216HW,2013-09-07 02:12:00,
2013-09-06 19:17:00,77.0,52.7,29.86,WNW,293,0.0,0.7,43,0.00,,,0.00,WUHU216HW,2013-09-07 02:17:00,
2013-09-06 19:22:00,76.9,53.2,29.87,WNW,293,0.0,0.0,44,0.00,,,0.00,WUHU216HW,2013-09-07 02:22:00,
2013-09-06 19:28:00,76.5,52.9,29.88,WNW,293,0.4,0.4,44,0.00,,,0.00,WUHU216HW,2013-09-07 02:28:00,
2013-09-06 19:33:00,76.3,52.7,29.88,SSW,203,0.0,0.4,44,0.00,,,0.00,WUHU216HW,2013-09-07 02:33:00,
2013-09-06 19:38:00,76.0,52.4,29.88,SE,135,0.9,0.9,44,0.00,,,0.00,WUHU216HW,2013-09-07 02:38:00,
2013-09-06 19:43:00,75.8,52.3,29.87,SE,135,0.7,1.1,44,0.00,,,0.00,WUHU216HW,2013-09-07 02:43:00,
2013-09-06 19:48:00,75.4,52.6,29.88,SE,135,0.4,1.1,45,0.00,,,0.00,WUHU216HW,2013-09-07 02:48:00,
2013-09-06 19:53:00,75.1,52.2,29.88,SSE,158,1.1,2.2,45,0.00,,,0.00,WUHU216HW,2013-09-07 02:53:00,
2013-09-06 19:58:00,74.7,51.8,29.89,SSE,158,0.2,2.2,45,0.00,,,0.00,WUHU216HW,2013-09-07 02:58:00,
2013-09-06 20:03:00,74.5,52.3,29.88,SSW,203,0.2,1.1,46,0.00,,,0.00,WUHU216HW,2013-09-07 03:03:00,
2013-09-06 20:08:00,74.0,51.8,29.88,SSE,158,0.4,1.1,46,0.00,,,0.00,WUHU216HW,2013-09-07 03:08:00,
2013-09-06 20:14:00,73.8,51.6,29.89,South,180,0.7,1.1,46,0.00,,,0.00,WUHU216HW,2013-09-07 03:14:00,
2013-09-06 20:19:00,73.6,51.5,29.88,South,180,0.7,1.1,46,0.00,,,0.00,WUHU216HW,2013-09-07 03:19:00,
2013-09-06 20:24:00,73.4,51.3,29.88,WSW,248,1.1,1.1,46,0.00,,,0.00,WUHU216HW,2013-09-07 03:24:00,
2013-09-06 20:29:00,73.3,51.1,29.88,WSW,248,1.1,1.1,46,0.00,,,0.00,WUHU216HW,2013-09-07 03:29:00,
2013-09-06 20:34:00,73.1,50.9,29.88,WSW,248,1.6,2.2,46,0.00,,,0.00,WUHU216HW,2013-09-07 03:34:00,
2013-09-06 20:39:00,72.9,50.8,29.88,SW,225,0.4,2.2,46,0.00,,,0.00,WUHU216HW,2013-09-07 03:39:00,
2013-09-06 20:44:00,72.5,51.0,29.87,SW,225,1.1,1.1,47,0.00,,,0.00,WUHU216HW,2013-09-07 03:44:00,
2013-09-06 20:49:00,72.5,51.0,29.89,WSW,248,2.5,2.5,47,0.00,,,0.00,WUHU216HW,2013-09-07 03:49:00,
2013-09-06 20:54:00,72.4,50.9,29.88,WSW,248,1.1,2.5,47,0.00,,,0.00,WUHU216HW,2013-09-07 03:54:00,
2013-09-06 20:59:00,72.4,50.9,29.88,WSW,248,2.5,2.5,47,0.00,,,0.00,WUHU216HW,2013-09-07 03:59:00,
2013-09-06 21:01:00,72.2,50.8,29.88,West,270,2.5,2.5,47,0.00,,,0.00,WUHU216HW,2013-09-07 04:01:00,
2013-09-06 21:02:00,72.2,50.8,29.88,WSW,248,2.2,2.5,47,0.00,,,0.00,WUHU216HW,2013-09-07 04:02:00,
2013-09-06 21:05:00,72.2,50.8,29.88,WSW,248,2.2,2.5,47,0.00,,,0.00,WUHU216HW,2013-09-07 04:05:00,
2013-09-06 21:10:00,72.0,50.6,29.88,WSW,248,2.0,2.5,47,0.00,,,0.00,WUHU216HW,2013-09-07 04:10:00,
2013-09-06 21:14:00,72.0,50.6,29.88,West,270,1.8,2.5,47,0.00,,,0.00,WUHU216HW,2013-09-07 04:14:00,
2013-09-06 21:19:00,72.0,50.6,29.88,WSW,248,0.9,2.2,47,0.00,,,0.00,WUHU216HW,2013-09-07 04:19:00,
2013-09-06 21:24:00,72.0,50.6,29.88,West,270,0.0,1.3,47,0.00,,,0.00,WUHU216HW,2013-09-07 04:24:00,
2013-09-06 21:29:00,72.0,50.6,29.87,WSW,248,1.1,1.3,47,0.00,,,0.00,WUHU216HW,2013-09-07 04:29:00,
2013-09-06 21:34:00,72.0,50.6,29.88,West,270,2.2,2.5,47,0.00,,,0.00,WUHU216HW,2013-09-07 04:34:00,
2013-09-06 21:39:00,72.0,50.6,29.88,West,270,1.6,2.5,47,0.00,,,0.00,WUHU216HW,2013-09-07 04:39:00,
2013-09-06 21:44:00,72.0,50.0,29.87,WSW,248,2.2,2.7,46,0.00,,,0.00,WUHU216HW,2013-09-07 04:44:00,
2013-09-06 21:50:00,72.2,50.1,29.87,West,270,2.2,3.1,46,0.00,,,0.00,WUHU216HW,2013-09-07 04:50:00,
2013-09-06 21:55:00,72.4,50.3,29.87,WSW,248,1.6,3.1,46,0.00,,,0.00,WUHU216HW,2013-09-07 04:55:00,
2013-09-06 22:00:00,72.4,50.3,29.86,WSW,248,1.3,2.7,46,0.00,,,0.00,WUHU216HW,2013-09-07 05:00:00,
2013-09-06 22:05:00,72.4,50.3,29.87,SW,225,1.3,1.8,46,0.00,,,0.00,WUHU216HW,2013-09-07 05:05:00,
2013-09-06 22:10:00,72.0,50.0,29.88,SW,225,1.8,1.8,46,0.00,,,0.00,WUHU216HW,2013-09-07 05:10:00,
2013-09-06 22:15:00,71.8,49.8,29.87,SW,225,2.2,2.5,46,0.00,,,0.00,WUHU216HW,2013-09-07 05:15:00,
2013-09-06 22:20:00,71.6,50.2,29.87,WSW,248,2.9,2.9,47,0.00,,,0.00,WUHU216HW,2013-09-07 05:20:00,
2013-09-06 22:25:00,71.6,50.2,29.88,SW,225,1.8,2.9,47,0.00,,,0.00,WUHU216HW,2013-09-07 05:25:00,
2013-09-06 22:30:00,71.6,50.2,29.88,SW,225,1.6,2.5,47,0.00,,,0.00,WUHU216HW,2013-09-07 05:30:00,
2013-09-06 22:36:00,71.6,50.9,29.88,SW,225,1.3,2.5,48,0.00,,,0.00,WUHU216HW,2013-09-07 05:36:00,
2013-09-06 22:41:00,71.6,50.9,29.87,SW,225,1.1,1.8,48,0.00,,,0.00,WUHU216HW,2013-09-07 05:41:00,
2013-09-06 22:46:00,71.6,50.9,29.88,SW,225,1.6,2.0,48,0.00,,,0.00,WUHU216HW,2013-09-07 05:46:00,
2013-09-06 22:51:00,71.8,51.0,29.88,SW,225,1.8,2.0,48,0.00,,,0.00,WUHU216HW,2013-09-07 05:51:00,
2013-09-06 22:56:00,72.0,51.1,29.87,SW,225,1.1,1.8,48,0.00,,,0.00,WUHU216HW,2013-09-07 05:56:00,
2013-09-06 23:01:00,72.2,51.3,29.87,SW,225,1.6,1.8,48,0.00,,,0.00,WUHU216HW,2013-09-07 06:01:00,
2013-09-06 23:06:00,72.4,51.5,29.87,SW,225,1.1,1.8,48,0.00,,,0.00,WUHU216HW,2013-09-07 06:06:00,
2013-09-06 23:11:00,72.4,51.5,29.87,SW,225,1.6,1.8,48,0.00,,,0.00,WUHU216HW,2013-09-07 06:11:00,
2013-09-06 23:16:00,72.5,51.0,29.87,SW,225,1.3,1.8,47,0.00,,,0.00,WUHU216HW,2013-09-07 06:16:00,
2013-09-06 23:21:00,72.5,51.0,29.87,SW,225,1.8,1.8,47,0.00,,,0.00,WUHU216HW,2013-09-07 06:21:00,
2013-09-06 23:27:00,72.5,51.0,29.87,SW,225,1.1,1.8,47,0.00,,,0.00,WUHU216HW,2013-09-07 06:27:00,
2013-09-06 23:32:00,72.5,51.0,29.87,SW,225,1.1,1.3,47,0.00,,,0.00,WUHU216HW,2013-09-07 06:32:00,
2013-09-06 23:37:00,72.5,51.0,29.88,SW,225,0.9,1.3,47,0.00,,,0.00,WUHU216HW,2013-09-07 06:37:00,
2013-09-06 23:42:00,72.5,51.0,29.87,SW,225,0.7,1.3,47,0.00,,,0.00,WUHU216HW,2013-09-07 06:42:00,
2013-09-06 23:47:00,72.5,51.0,29.87,SW,225,1.1,1.3,47,0.00,,,0.00,WUHU216HW,2013-09-07 06:47:00,
2013-09-06 23:52:00,72.4,51.5,29.87,WSW,248,0.4,1.1,48,0.00,,,0.00,WUHU216HW,2013-09-07 06:52:00,
2013-09-06 23:57:00,72.4,51.5,29.86,WSW,248,1.1,1.1,48,0.00,,,0.00,WUHU216HW,2013-09-07 06:57:00,